Weather History for Cincinnati, OH

Change the Weather History Date:

Sunday, December 8, 2013

  Actual Average Record
Temperature  
Mean Temperature 26 °F -  
Max Temperature 32 °F 46 °F 69 °F (1966)
Min Temperature 21 °F 31 °F 10 °F (2010)
Degree Days  
Heating Degree Days 38    
Moisture  
Dew Point 24 °F    
Average Humidity 88    
Maximum Humidity 100    
Minimum Humidity 74    
Precipitation  
Precipitation 0.04 in - - ()
Sea Level Pressure  
Sea Level Pressure 30.24 in    
Wind  
Wind Speed 6 mph (ENE)    
Max Wind Speed 10 mph    
Max Gust Speed -    
Visibility 5 miles    
Events Fog , Rain , Snow    
Averages and records for this station are not official NWS values.
T = Trace of Precipitation, MM = Missing Value Source: NWS Daily Summary

Daily Weather History Graph

Daily Weather History Graph

Search for Another Location

Airport:

Trip Planner

Search our weather history database for the weather conditions in past years. The results will help you decide how hot, cold, wet, or windy it might be!

Date:

Astronomy

Dec. 08, 2013 Rise Set
Actual Time 7:44 AM EST 5:14 PM EST
Civil Twilight 7:14 AM EST 5:44 PM EST
Nautical Twilight 6:41 AM EST 6:18 PM EST
Astronomical Twilight 6:08 AM EST 6:50 PM EST
Moon 12:06 PM EST (12/8) No Moon Set
Length of Visible Light 10h 30m
Length of Day
9h 30m
Waxing Crescent, 40% of the Moon is Illuminated
Dec 8
Waxing Crescent
Dec 9
First Quarter
Dec 17
Full
Dec 25
Last Quarter
Jan 1
New

Hourly Weather History & Observations

Time (EST) Temp. Windchill Dew Point Humidity Pressure Visibility Wind Dir Wind Speed Gust Speed Precip Events Conditions
12:53 AM 21.0 °F 12.4 °F 15.1 °F 78% 30.56 in 10.0 mi NE 6.9 mph - N/A   Clear
1:53 AM 21.9 °F 12.5 °F 15.1 °F 75% 30.51 in 10.0 mi NE 8.1 mph - N/A   Scattered Clouds
2:53 AM 21.9 °F 14.5 °F 15.1 °F 75% 30.52 in 10.0 mi NE 5.8 mph - N/A   Clear
3:53 AM 21.9 °F 15.7 °F 16.0 °F 78% 30.50 in 10.0 mi NE 4.6 mph - N/A   Clear
4:53 AM 23.0 °F 18.4 °F 16.0 °F 74% 30.45 in 10.0 mi ENE 3.5 mph - N/A   Overcast
5:53 AM 23.0 °F 13.1 °F 16.0 °F 74% 30.42 in 10.0 mi ENE 9.2 mph - N/A   Overcast
6:53 AM 23.0 °F 14.7 °F 16.0 °F 74% 30.40 in 10.0 mi NE 6.9 mph - N/A   Overcast
7:53 AM 24.1 °F 13.7 °F 17.1 °F 75% 30.38 in 10.0 mi ENE 10.4 mph - N/A   Overcast
8:53 AM 24.1 °F 14.4 °F 19.0 °F 81% 30.37 in 2.0 mi NE 9.2 mph - 0.00 in Snow Light Snow
9:53 AM 24.1 °F 14.4 °F 19.9 °F 84% 30.38 in 3.0 mi NE 9.2 mph - 0.00 in Snow Light Snow
9:55 AM 24.8 °F 14.6 °F 19.4 °F 80% 30.36 in 2.0 mi NE 10.4 mph - 0.00 in Snow Light Snow
10:13 AM 23.0 °F 13.9 °F 19.4 °F 86% 30.35 in 0.5 mi NE 8.1 mph - 0.01 in Fog , Snow Snow
10:53 AM 24.1 °F 17.0 °F 21.0 °F 88% 30.35 in 0.5 mi NE 5.8 mph - 0.03 in Fog , Snow Light Snow
11:17 AM 24.8 °F 16.9 °F 21.2 °F 86% 30.32 in 2.0 mi NE 6.9 mph - 0.00 in Snow Light Snow
11:31 AM 24.8 °F 16.9 °F 21.2 °F 86% 30.32 in 3.0 mi NE 6.9 mph - 0.00 in Snow Light Snow
11:53 AM 25.0 °F 17.1 °F 21.9 °F 88% 30.31 in 3.0 mi ENE 6.9 mph - 0.00 in Snow Light Snow
12:53 PM 27.0 °F 18.0 °F 21.9 °F 81% 30.27 in 10.0 mi NE 9.2 mph - 0.00 in   Overcast
1:53 PM 28.0 °F 20.0 °F 23.0 °F 81% 30.22 in 10.0 mi East 8.1 mph - N/A   Overcast
2:53 PM 28.0 °F 19.3 °F 24.1 °F 85% 30.18 in 10.0 mi NE 9.2 mph - N/A   Overcast
3:53 PM 28.0 °F 22.8 °F 25.0 °F 88% 30.16 in 6.0 mi NE 4.6 mph - N/A   Overcast
4:09 PM 28.4 °F 23.3 °F 24.8 °F 86% 30.14 in 6.0 mi ENE 4.6 mph - N/A   Overcast
4:46 PM 28.4 °F 24.6 °F 26.6 °F 93% 30.13 in 1.8 mi ENE 3.5 mph - N/A   Overcast
4:53 PM 28.0 °F 24.2 °F 27.0 °F 96% 30.14 in 1.2 mi ENE 3.5 mph - N/A   Overcast
5:53 PM 28.9 °F - 28.0 °F 96% 30.12 in 2.0 mi Calm Calm - N/A   Overcast
6:24 PM 28.4 °F - 28.4 °F 100% 30.10 in 3.0 mi Calm Calm - N/A   Overcast
6:53 PM 28.9 °F - 28.9 °F 100% 30.11 in 3.0 mi Calm Calm - N/A   Overcast
7:27 PM 30.2 °F - 28.4 °F 93% 30.09 in 2.5 mi Calm Calm - N/A   Overcast
7:53 PM 30.0 °F - 30.0 °F 100% 30.09 in 2.0 mi Calm Calm - N/A   Overcast
8:01 PM 30.2 °F - 30.2 °F 100% 30.08 in 1.8 mi Calm Calm - 0.01 in   Overcast
8:53 PM 30.9 °F - 30.0 °F 96% 30.08 in 1.5 mi Calm Calm - 0.01 in   Overcast
9:53 PM 30.9 °F - 30.9 °F 100% 30.07 in 2.0 mi Calm Calm - N/A   Overcast
10:21 PM 30.2 °F 25.4 °F 30.2 °F 100% 30.05 in 2.0 mi SSW 4.6 mph - 0.00 in Rain Light Freezing Rain
10:51 PM 30.2 °F 25.4 °F 30.2 °F 100% 30.05 in 3.0 mi SSW 4.6 mph - 0.00 in Rain Light Freezing Rain
10:53 PM 30.9 °F 26.2 °F 30.9 °F 100% 30.06 in 3.0 mi SSW 4.6 mph - 0.00 in Rain Light Freezing Rain
11:29 PM 32.0 °F 26.4 °F 30.2 °F 93% 30.05 in 3.0 mi SSW 5.8 mph - 0.00 in   Overcast
11:53 PM 32.0 °F 25.6 °F 32.0 °F 100% 30.06 in 3.0 mi South 6.9 mph - 0.00 in   Overcast